This demonstration page uses our WeatherBlox Daily Observations layout. Learn more.

Left ArrowRight Arrow

30.21309, -93.2044

Hourly Observations for September 29, 2022

Temp ( °F °C ) Dew Point ( °F °C ) Humidity (%) Winds ( mph kmh ) Pressure ( in mb ) Visibility ( mi km ) Precip ( " mm )
12:15 am 00:15 Clear 67 19.2 50 10 55 55 NNE 6 9 30.19 1022 10 16 0.00 0.00
12:35 am 00:35 Clear 66 19 50 9.8 55 55 NNE 7 11 30.19 1022 10 16 0.00 0.00
12:55 am 00:55 Clear 65 18.5 49 9.7 57 57 NNE 7 11 30.19 1022 10 16 0.00 0.00
1:15 am 01:15 Clear 65 18.4 49 9.6 56 56 NNE 7 11 30.19 1022 10 16 0.00 0.00
1:35 am 01:35 Clear 65 18.3 49 9.4 56 56 NNE 6 9 30.19 1022 10 16 0.00 0.00
1:55 am 01:55 Clear 64 17.9 49 9.3 57 57 NE 7 11 30.20 1023 10 16 0.00 0.00
2:15 am 02:15 Clear 65 18.3 48 9 55 55 NE 8 13 30.20 1023 10 16 0.00 0.00
2:35 am 02:35 Clear 64 18 47 8.5 54 54 ENE 9 15 30.20 1023 10 16 0.00 0.00
2:55 am 02:55 Clear 64 17.7 47 8.2 54 54 NE 9 15 30.19 1022 10 16 0.00 0.00
3:15 am 03:15 Clear 64 17.5 46 8 54 54 NE 9 15 30.19 1022 10 16 0.00 0.00
3:35 am 03:35 Clear 64 17.5 46 7.5 52 52 NE 10 17 30.20 1023 10 16 0.00 0.00
3:55 am 03:55 Clear 63 17.3 45 7.2 51 51 NE 8 13 30.19 1022 10 16 0.00 0.00
4:15 am 04:15 Clear 62 16.7 45 7.1 53 53 NE 7 11 30.19 1022 10 16 0.00 0.00
4:35 am 04:35 Clear 61 16.2 44 6.9 54 54 NNE 8 13 30.19 1022 10 16 0.00 0.00
4:55 am 04:55 Clear 60 15.8 44 6.8 55 55 NNE 8 13 30.19 1022 10 16 0.00 0.00
5:15 am 05:15 Clear 60 15.7 44 6.6 55 55 NNE 9 15 30.19 1022 10 16 0.00 0.00
5:35 am 05:35 Clear 60 15.3 44 6.7 56 56 NNE 8 13 30.20 1023 10 16 0.00 0.00
6:00 am 06:00 Mostly Clear 59 15 45 7 59 59 NNE 13 20 30.20 1023 10 16 0.00 0.00
6:48 am 06:48 Mostly Clear 57 14 45 7 63 63 NNE 12 19 30.21 1023 10 16 0.00 0.00
7:50 am 07:50 Mostly Sunny 57 14 45 7 63 63 NNE 12 19 30.22 1023 10 16 0.00 0.00
8:45 am 08:45 Mostly Sunny 61 16 43 6 51 51 NNE 12 19 30.23 1024 10 16 0.00 0.00
9:50 am 09:50 Mostly Sunny 66 19 43 6 43 43 NNE 12 19 30.22 1023 10 16 0.00 0.00
10:53 am 10:53 Mostly Sunny 70 21 43 6 38 38 NE 14 22 30.22 1023 10 16 0.00 0.00
11:53 am 11:53 Mostly Sunny 72 22 41 5 33 33 N 13 20 30.19 1022 10 16 0.00 0.00
12:53 pm 12:53 Mostly Sunny 73 23 43 6 33 33 N 13 20 30.17 1022 10 16 0.00 0.00
1:55 pm 13:55 Mostly Sunny 75 24 43 6 31 31 N 13 20 30.12 1020 10 16 0.00 0.00
2:50 pm 14:50 Mostly Sunny 79 26 41 5 26 26 NNE 14 22 30.08 1019 10 16 0.00 0.00
3:45 pm 15:45 Mostly Sunny 79 26 39 4 24 24 N 14 22 30.06 1018 10 16 0.00 0.00
4:45 pm 16:45 Mostly Sunny 79 26 41 5 26 26 NE 14 22 30.06 1018 10 16 0.00 0.00
5:45 pm 17:45 Mostly Sunny 77 25 43 6 30 30 NNE 12 19 30.05 1018 10 16 0.00 0.00
6:50 pm 18:50 Mostly Sunny 72 22 43 6 35 35 NNE 8 13 30.05 1018 10 16 0.00 0.00
7:45 pm 19:45 Mostly Clear 68 20 45 7 43 43 NE 6 9 30.06 1018 10 16 0.00 0.00
8:45 pm 20:45 Mostly Clear 64 18 46 8 52 52 NE 5 7 30.08 1019 10 16 0.00 0.00
9:45 pm 21:45 Mostly Clear 63 17 46 8 55 55 NNE 5 7 30.10 1019 10 16 0.00 0.00
10:15 pm 22:15 Clear 62 16.7 47 8.2 57 57 N 5 7 30.11 1020 10 16 0.00 0.00
10:35 pm 22:35 Clear 62 16.4 47 8.2 58 58 N 3 6 30.11 1020 10 16 0.00 0.00
10:55 pm 22:55 Clear 61 15.9 48 8.7 62 62 N 3 6 30.11 1020 10 16 0.00 0.00
11:15 pm 23:15 Clear 60 15.6 48 8.7 63 63 N 3 6 30.11 1020 10 16 0.00 0.00
11:35 pm 23:35 Clear 60 15.7 47 8.6 63 63 NNW 3 6 30.11 1020 10 16 0.00 0.00
11:55 pm 23:55 Clear 59 15.2 47 8.5 64 64 N 3 6 30.10 1019 10 16 0.00 0.00

Powered by AerisWeather